Home > Weather > Orange > Past weeks

Flag for USA Past Weather in Orange, California, USA — Yesterday and Last 2 Weeks

Now
74 °F

Passing clouds.


Feels Like: 75 °F
Forecast: 67 / 89 °F
Wind: 8 mph from Southwest

Location: John Wayne Airport-Orange County Airport

Current Time: Jul 24, 2016 at 9:43:54 AM

Latest Report: Jul 24, 2016 at 8:53 AM


Visibility: 7 mi

Pressure: 29.89 "Hg

Humidity: 76%

Dew Point: 66 °F

Location of OrangeLocation

Past Weather in Orange — Graph

°F

Orange Temperature Yesterday

Maximum temperature yesterday: 84 °F (at 10:53 AM)
Minimum temperature yesterday: 71 °F (at 4:53 AM)
Average temperature yesterday: 76 °F

High & Low Weather Summary for the Past Weeks

 TemperatureHumidityPressure
High90 °F (Jul 22, 11:53 AM)93% (Jul 24, 2:53 AM)30.03 "Hg (Jul 24, 2:53 AM)
Low65 °F (Jul 17, 12:53 AM)33% (Jul 20, 3:53 PM)29.79 "Hg (Jul 23, 3:53 AM)
Average72 °F70%29.92 "Hg
* Reported Jul 9 7:53 AM — Jul 24 7:53 AM, Orange, Weather by CustomWeather, © 2016

Note: Actual official high and low records may vary slightly from our data, if they occured in-between our weather recording intervals... More about our weather records

Advertising

Orange Weather History for the Previous 24 Hours

Scroll right to see more
 ConditionsComfort  
Time TempWeatherWind HumidityBarometerVisibility
7:53 AM
Sun, Jul 24
71 °FFog.5 mph84%29.87 "Hg6 mi
6:53 AM70 °FFog.No wind84%29.85 "Hg6 mi
5:53 AM68 °FClear.No wind87%29.83 "Hg10 mi
4:53 AM68 °FClear.No wind87%29.82 "Hg10 mi
3:53 AM69 °FClear.3 mph90%29.81 "Hg7 mi
2:53 AM69 °FClear.7 mph93%29.80 "Hg7 mi
1:53 AM70 °FClear.3 mph87%29.80 "Hg8 mi
12:53 AM71 °FClear.3 mph81%29.81 "Hg9 mi
11:53 PM
Sat, Jul 23
73 °FClear.No wind76%29.82 "Hg9 mi
10:53 PM72 °FPassing clouds.3 mph78%29.82 "Hg8 mi
9:53 PM71 °FPassing clouds.No wind84%29.83 "Hg8 mi
8:53 PM72 °FPassing clouds.7 mph78%29.82 "Hg8 mi
7:53 PM73 °FScattered clouds.9 mph76%29.80 "Hg8 mi
6:53 PM75 °FScattered clouds.14 mph71%29.79 "Hg9 mi
5:53 PM77 °FScattered clouds.16 mph66%29.79 "Hg9 mi
4:53 PM79 °FScattered clouds.14 mph62%29.79 "Hg10 mi
3:53 PM82 °FScattered clouds.17 mph55%29.80 "Hg10 mi
2:53 PM81 °FScattered clouds.17 mph60%29.81 "Hg10 mi
1:53 PM81 °FScattered clouds.17 mph65%29.80 "Hg10 mi
12:53 PM82 °FScattered clouds.20 mph58%29.80 "Hg10 mi
11:53 AM81 °FPassing clouds.13 mph58%29.80 "Hg10 mi
10:53 AM84 °FPassing clouds.10 mph51%29.80 "Hg10 mi
9:53 AM79 °FPassing clouds.6 mph60%29.81 "Hg10 mi
Weather by CustomWeather, © 2016

See weather overviewHow to use our weather pages